User: anonymous   Login
Location: Borealis Mine
(38.3824°N, 118.7610°W)
Time: 19:02:32
(UTC+00:00)
Language:

ADEOS Rocket - Orbit

View from above orbital plane
View from above orbital plane
View from above satellite
View from above satellite

Ground track
Ground track

The orbit data is extracted from the following two-line orbital elements,

1 24279U 96046C   20330.95520247 +.00000041 +00000-0 +98379-4 0  9996
2 24279 098.7033 131.7364 0299408 321.1320 148.3349 13.47167200193315
Epoch (UTC): 25 November 2020 22:55:29
Eccentricity: 0.0299408
inclination: 98.7033°
perigee height: 859 km
apogee height: 1306 km
right ascension of ascending node: 131.7364°
argument of perigee: 321.1320°
revolutions per day: 13.47167200
mean anomaly at epoch: 148.3349°
orbit number at epoch: 19331

The dashed part of the orbit path shows where the satellite is in the earth's shadow,  

DLR